Temp
60 59 60 60 60 60 60 60 60 60 60 61 61 61 61 61 60 59 55 63 66 68 67 66 68 66 66 64 66 63 49 47 52 55 58 67 63 69 68 70 67 68 66 69 73
59 59 59 59 59 59 59 60 60 60 60 60 60 60 60 61 54 54 64 68 68 67 63 60 60 61 58 63 62 55 48 53 62 60 60 63 63 65 65 64 63 61 66 72 71
59 59 59 59 59 59 59 59 59 59 59 60 60 60 60 58 49 54 67 68 68 67 64 62 62 60 55 57 59 56 50 61 64 61 62 63 63 64 64 58 65 60 61 64 64
59 58 58 58 58 58 59 59 59 59 59 59 59 60 59 54 39 59 67 67 67 67 62 60 56 53 51 51 57 52 60 63 62 62 61 60 66 62 61 63 70 68 65 63 63
58 58 58 58 58 58 58 58 58 58 58 59 59 59 53 45 47 64 65 65 66 63 59 57 53 52 49 52 54 51 55 62 59 62 60 63 61 60 62 66 69 69 66 62 63
57 57 57 57 57 57 58 58 58 58 58 58 59 59 47 36 59 63 62 62 61 59 57 57 55 57 52 52 50 54 54 58 57 57 59 58 58 60 63 68 66 67 63 62 63
57 57 57 57 57 57 57 57 58 58 58 58 59 55 45 41 58 59 60 58 60 58 54 59 57 52 52 49 55 52 48 51 54 56 57 59 54 56 64 65 65 64 63 62 63
57 56 57 57 57 57 57 57 57 58 58 58 59 49 38 57 56 57 58 57 60 61 58 61 59 53 53 53 51 46 44 40 52 55 57 58 47 58 63 63 63 63 61 64 64
57 56 56 56 56 56 56 57 57 58 59 59 48 44 38 60 52 56 55 53 55 58 60 63 59 49 50 42 40 44 35 39 45 56 58 56 46 60 63 62 60 61 62 63 65
56 56 56 56 56 56 56 57 57 57 56 56 54 38 46 45 52 55 56 55 50 51 52 51 49 44 41 39 33 33 38 41 41 51 53 53 52 58 64 61 57 59 61 62 65
56 56 56 56 56 56 51 44 39 39 43 37 40 41 46 51 55 51 54 51 50 46 38 46 39 36 39 43 45 44 41 41 46 54 51 50 52 57 62 59 54 56 60 59 63
56 56 56 55 56 56 48 40 40 41 33 43 43 43 49 51 42 47 53 42 41 36 41 37 34 43 46 45 44 43 40 39 45 49 50 47 47 55 59 55 60 57 58 59 63
56 56 55 55 55 48 43 43 48 46 32 37 45 44 45 48 41 42 48 44 38 35 37 33 41 47 44 43 41 41 40 40 41 44 46 45 42 46 54 56 63 61 62 61 64
55 55 55 54 46 44 41 48 49 44 14 28 39 43 46 45 37 50 50 44 39 33 35 35 43 42 41 40 43 37 46 46 43 40 34 42 34 42 51 54 58 62 64 63 63
55 55 54 53 42 40 45 49 47 40 0 34 38 50 46 39 40 43 49 43 34 35 35 34 36 37 35 38 45 40 47 45 43 38 33 33 31 37 49 49 54 60 64 62 61
55 54 54 48 43 45 48 49 42 17 1 21 35 34 34 38 39 44 43 45 43 36 37 34 41 36 37 45 44 49 44 42 42 38 25 33 33 33 44 50 55 59 63 59 58
54 53 51 49 41 47 47 39 16 5 25 18 20 30 31 31 33 36 35 33 28 21 18 31 33 37 42 36 44 43 38 23 25 25 25 35 30 39 45 50 55 53 57 58 59
54 52 49 47 45 46 39 21 6 15 11 32 32 31 24 29 31 32 31 25 33 31 27 18 20 35 40 36 37 35 39 25 17 22 23 35 28 37 51 52 51 51 52 52 52
52 42 43 44 46 42 27 10 13 13 30 28 29 18 12 25 29 28 25 25 32 32 23 24 23 37 41 43 43 36 34 42 31 25 25 28 34 44 46 47 48 48 49 49 49
40 42 42 46 45 39 22 18 14 31 32 31 20 24 8 13 19 22 26 28 30 32 33 29 23 34 39 43 43 41 43 32 30 15 14 26 28 33 38 41 45 45 46 48 49
43 33 43 47 41 33 13 9 18 32 35 28 24 20 20 19 19 16 25 30 32 31 34 31 28 30 33 34 33 35 34 38 37 28 24 22 26 38 41 43 43 45 46 45 47
32 19 42 42 22 24 12 17 33 30 31 29 29 28 26 24 15 21 23 29 37 35 29 32 24 24 29 36 37 35 37 39 32 27 29 30 25 41 44 45 45 45 46 46 47
31 31 41 38 17 10 15 24 29 28 29 25 25 30 31 26 21 25 27 37 37 34 31 32 27 13 24 31 34 32 36 42 40 34 26 20 24 42 44 42 44 44 44 45 45
29 17 25 27 22 14 9 14 19 33 29 31 27 28 27 25 30 25 26 35 34 33 37 37 29 22 20 22 28 26 30 38 40 26 31 28 30 34 37 39 41 42 43 42 42
30 18 23 15 22 13 18 24 23 22 26 31 28 27 22 14 24 25 28 31 35 38 33 32 22 25 28 29 29 28 28 32 33 35 32 33 34 37 38 39 40 40 41 42 41
24 19 23 10 25 15 16 18 24 25 27 21 23 29 27 18 23 23 27 27 28 33 30 32 23 25 20 29 29 27 29 32 33 33 33 35 33 40 40 40 40 41 41 39 39
33 33 28 23 14 17 15 20 27 28 30 32 29 28 27 29 30 31 31 32 30 28 28 28 25 21 16 27 27 19 27 29 31 34 38 32 38 41 38 40 40 39 40 40 40
MSLP
1024.14 1024.06 1023.92 1023.88 1023.60 1023.30 1022.99 1022.80 1022.60 1022.41 1022.04 1021.87 1021.49 1021.11 1020.73 1020.15 1019.70 1019.05 1018.59 1018.40 1017.93 1017.66 1017.74 1017.59 1016.48 1016.33 1016.06 1015.93 1015.29 1015.36 1016.00 1015.89 1014.98 1014.10 1012.94 1011.90 1011.06 1010.45 1010.36 1010.89 1011.59 1012.20 1012.94 1013.33 1014.63
1024.36 1024.09 1023.78 1023.69 1023.60 1023.54 1023.25 1023.01 1022.45 1022.08 1022.05 1021.79 1021.65 1021.21 1020.68 1020.18 1019.64 1018.80 1018.47 1018.17 1017.90 1018.03 1017.96 1017.58 1017.14 1016.88 1016.51 1015.98 1015.48 1015.57 1015.97 1015.53 1014.40 1014.09 1013.69 1012.80 1012.09 1011.51 1011.20 1011.58 1012.71 1013.44 1013.74 1013.83 1014.77
1024.45 1024.28 1023.96 1023.68 1023.66 1023.61 1023.42 1023.16 1022.60 1022.13 1021.73 1021.63 1021.51 1021.25 1020.74 1020.04 1019.58 1018.72 1018.25 1017.86 1017.56 1017.08 1017.36 1017.46 1017.16 1017.11 1017.15 1016.34 1015.70 1015.63 1015.53 1014.97 1014.52 1014.32 1014.14 1013.50 1012.42 1012.16 1011.79 1012.20 1012.46 1013.52 1014.46 1014.80 1015.13
1024.49 1024.19 1024.07 1023.93 1023.70 1023.48 1023.31 1023.17 1022.90 1022.47 1022.15 1021.86 1021.62 1021.12 1020.44 1020.12 1019.74 1018.32 1018.26 1017.83 1017.50 1017.21 1017.34 1017.45 1017.36 1017.16 1017.20 1016.50 1016.06 1016.04 1015.24 1014.87 1014.54 1014.50 1014.49 1014.10 1013.30 1012.79 1012.50 1012.20 1011.90 1012.57 1013.47 1014.83 1015.38
1024.51 1024.32 1024.22 1024.04 1024.05 1023.74 1023.24 1022.89 1022.58 1022.45 1022.20 1021.86 1021.66 1021.34 1020.98 1020.56 1019.29 1018.16 1018.16 1018.04 1017.58 1017.50 1017.35 1017.27 1017.35 1017.14 1017.52 1017.00 1016.59 1016.23 1015.63 1015.15 1014.93 1014.60 1014.52 1014.27 1013.84 1013.45 1012.79 1012.10 1012.00 1012.83 1013.79 1014.59 1015.45
1024.55 1024.41 1024.11 1024.11 1023.92 1023.62 1023.21 1022.78 1022.62 1022.32 1022.23 1022.13 1021.74 1021.46 1021.47 1020.90 1018.77 1018.42 1018.50 1018.25 1018.25 1018.22 1017.79 1017.60 1017.41 1017.13 1017.51 1016.89 1016.50 1016.01 1015.78 1015.54 1015.30 1015.08 1014.69 1014.59 1014.01 1013.63 1012.70 1012.46 1012.46 1013.16 1013.97 1014.55 1015.15
1024.50 1024.30 1024.14 1024.01 1023.85 1023.54 1023.14 1022.78 1022.48 1022.26 1022.05 1021.85 1021.75 1021.87 1021.64 1020.21 1018.69 1018.56 1018.60 1018.74 1018.51 1018.45 1018.06 1017.60 1017.92 1017.66 1017.54 1016.75 1016.41 1016.52 1016.71 1016.02 1015.33 1015.25 1014.88 1014.60 1014.12 1013.75 1012.96 1012.93 1013.27 1013.60 1013.86 1014.57 1014.94
1024.52 1024.26 1024.01 1023.81 1023.59 1023.31 1022.92 1022.48 1022.06 1021.88 1021.51 1021.47 1021.49 1021.68 1020.66 1019.09 1018.47 1018.78 1018.57 1018.51 1018.33 1018.36 1018.22 1017.73 1017.59 1017.99 1017.47 1016.99 1016.80 1017.03 1017.12 1016.42 1014.74 1014.94 1014.89 1014.77 1014.07 1013.93 1013.39 1013.38 1013.27 1013.52 1013.87 1013.91 1014.39
1024.40 1024.22 1023.95 1023.57 1023.35 1023.19 1022.75 1021.96 1021.25 1021.13 1020.87 1021.03 1021.39 1021.26 1020.17 1018.59 1018.48 1018.56 1018.52 1018.70 1018.54 1018.27 1017.92 1017.75 1017.82 1017.88 1017.56 1017.94 1017.57 1017.02 1016.38 1016.16 1015.31 1014.45 1014.45 1014.28 1014.24 1013.81 1013.50 1013.57 1013.65 1013.41 1013.56 1013.43 1013.68
1024.34 1024.10 1023.92 1023.69 1023.30 1022.95 1022.44 1021.44 1020.58 1020.50 1020.45 1020.79 1020.81 1021.13 1019.92 1019.14 1018.85 1018.83 1018.78 1018.72 1018.65 1018.60 1018.35 1017.98 1017.79 1017.58 1017.58 1017.29 1015.40 1016.34 1016.30 1015.85 1015.17 1014.41 1014.29 1014.05 1013.86 1013.78 1013.22 1013.61 1013.94 1013.34 1012.94 1013.09 1012.88
1024.14 1023.92 1023.63 1023.37 1023.16 1022.96 1022.56 1021.85 1021.92 1021.65 1021.60 1021.66 1021.15 1020.89 1020.12 1019.29 1018.89 1018.86 1018.89 1018.73 1018.48 1018.63 1018.29 1017.70 1017.52 1016.20 1016.80 1016.52 1016.39 1016.13 1015.85 1015.51 1014.92 1014.25 1013.91 1013.57 1013.59 1013.49 1013.74 1013.83 1014.02 1013.75 1012.95 1012.84 1012.71
1024.04 1023.75 1023.40 1023.19 1023.08 1022.95 1022.90 1023.27 1023.74 1023.90 1022.81 1021.46 1021.18 1020.64 1019.99 1019.63 1019.26 1018.61 1018.99 1019.40 1018.54 1018.55 1018.60 1018.53 1016.21 1016.73 1016.87 1016.88 1016.74 1016.04 1016.27 1015.54 1015.05 1014.52 1014.27 1014.09 1013.46 1013.40 1013.48 1013.92 1013.42 1013.47 1012.93 1012.64 1012.58
1023.87 1023.63 1023.37 1023.20 1023.18 1023.32 1023.50 1023.80 1023.76 1023.74 1023.57 1021.43 1020.23 1019.77 1019.44 1019.32 1018.86 1017.99 1018.63 1018.69 1018.62 1018.51 1018.32 1017.75 1016.23 1016.69 1016.85 1016.57 1016.32 1015.90 1015.60 1015.59 1015.10 1014.96 1014.89 1014.38 1014.18 1013.72 1013.25 1013.05 1012.71 1012.63 1012.65 1012.64 1012.53
1023.64 1023.44 1023.36 1023.33 1023.76 1023.46 1023.82 1023.69 1023.55 1023.78 1023.74 1021.69 1020.26 1019.83 1019.56 1019.41 1018.86 1017.67 1017.77 1018.70 1018.54 1018.46 1018.95 1017.88 1017.08 1016.92 1016.67 1015.99 1015.79 1015.29 1015.14 1014.95 1015.82 1015.51 1015.64 1015.36 1014.07 1013.06 1012.77 1012.43 1012.14 1011.68 1012.12 1012.39 1012.15
1023.45 1023.34 1023.28 1023.36 1023.72 1024.01 1024.30 1023.68 1023.66 1023.96 1023.94 1021.66 1020.27 1019.42 1019.40 1019.78 1019.06 1017.66 1016.92 1017.95 1018.12 1018.18 1018.44 1017.41 1016.90 1016.46 1016.51 1015.62 1015.43 1015.08 1014.86 1015.22 1015.64 1015.97 1016.36 1016.23 1015.67 1013.08 1012.57 1011.90 1011.20 1011.29 1011.49 1011.97 1012.51
1023.23 1023.39 1023.47 1023.62 1024.04 1024.23 1023.97 1023.74 1024.06 1024.84 1024.00 1022.30 1020.96 1020.25 1020.20 1019.51 1019.09 1018.13 1017.68 1017.31 1017.57 1018.20 1018.09 1017.95 1017.73 1017.70 1016.26 1015.47 1015.59 1015.21 1015.02 1015.13 1015.75 1016.68 1017.15 1015.99 1015.51 1014.06 1012.60 1011.41 1010.70 1010.63 1010.82 1012.29 1013.25
1023.06 1023.50 1023.62 1023.74 1024.44 1024.10 1023.87 1024.27 1025.34 1025.38 1024.39 1023.35 1022.26 1021.50 1021.02 1020.10 1019.23 1018.59 1018.02 1017.84 1018.14 1018.52 1018.51 1018.12 1017.15 1017.08 1016.35 1015.64 1014.84 1014.86 1014.65 1015.49 1016.79 1017.36 1015.47 1015.50 1015.97 1013.69 1012.25 1011.56 1010.47 1010.64 1011.14 1011.86 1012.80
1023.13 1023.61 1024.08 1024.23 1024.31 1024.07 1024.46 1025.49 1026.24 1025.76 1025.13 1023.80 1022.96 1022.09 1021.86 1021.11 1020.20 1019.44 1018.60 1018.43 1018.65 1018.91 1018.79 1018.06 1016.56 1015.57 1015.76 1015.30 1014.06 1014.28 1013.88 1013.66 1014.28 1015.36 1016.02 1016.04 1015.11 1013.04 1011.83 1012.30 1011.76 1011.93 1012.35 1013.15 1013.85
1023.23 1024.03 1024.21 1024.43 1024.23 1024.27 1025.31 1026.50 1026.45 1025.90 1025.00 1024.37 1023.41 1023.07 1023.04 1022.40 1021.66 1020.62 1019.81 1019.32 1018.74 1018.91 1019.05 1017.91 1016.39 1014.88 1014.45 1013.68 1013.91 1013.66 1013.40 1013.01 1013.88 1014.76 1015.59 1015.70 1014.59 1013.15 1012.41 1012.61 1013.01 1013.58 1013.84 1014.44 1015.02
1023.56 1024.04 1024.16 1024.12 1024.19 1024.72 1026.23 1027.04 1026.52 1025.44 1024.78 1024.29 1024.24 1023.99 1024.11 1023.46 1022.83 1021.80 1020.84 1020.02 1019.42 1019.17 1018.88 1018.53 1017.23 1015.05 1013.93 1013.90 1013.36 1012.58 1013.14 1013.20 1013.59 1014.53 1015.01 1014.86 1014.44 1013.24 1013.14 1013.33 1013.98 1014.51 1014.79 1015.55 1016.02
1023.45 1024.13 1024.04 1023.92 1024.52 1025.58 1027.05 1027.27 1026.38 1025.17 1024.43 1024.32 1024.26 1024.32 1024.18 1023.81 1023.09 1022.33 1021.29 1020.26 1019.74 1019.28 1018.92 1018.46 1017.99 1015.87 1015.14 1013.66 1013.22 1013.18 1012.81 1012.73 1012.84 1013.61 1014.02 1014.58 1014.26 1013.40 1013.31 1013.53 1014.27 1014.88 1015.33 1016.23 1016.84
1024.17 1024.77 1024.02 1024.08 1025.65 1026.68 1027.58 1026.89 1026.07 1025.17 1024.35 1024.13 1024.07 1024.10 1023.92 1023.49 1023.06 1022.40 1021.41 1020.31 1019.39 1019.27 1018.68 1018.23 1017.69 1016.51 1014.69 1013.96 1014.20 1013.65 1012.13 1012.19 1012.52 1013.21 1013.60 1013.78 1014.69 1013.14 1013.21 1013.89 1014.38 1015.50 1016.09 1016.70 1017.11
1025.14 1025.17 1024.32 1024.51 1026.35 1027.70 1027.45 1026.79 1025.86 1025.04 1024.39 1024.14 1024.11 1023.95 1023.76 1023.41 1023.10 1022.20 1021.20 1019.95 1019.52 1019.08 1018.55 1018.15 1017.78 1017.20 1015.28 1014.68 1014.03 1012.73 1011.90 1011.81 1012.48 1013.10 1013.55 1014.40 1015.56 1014.87 1014.19 1014.95 1015.60 1015.93 1016.72 1017.58 1018.27
1025.55 1025.90 1025.97 1026.25 1027.18 1027.75 1028.05 1027.26 1025.85 1024.42 1024.23 1023.99 1023.91 1023.81 1023.78 1023.37 1022.70 1022.19 1021.32 1020.11 1019.79 1019.44 1018.62 1018.26 1017.96 1017.56 1017.21 1016.38 1015.64 1014.26 1012.56 1011.99 1012.35 1012.91 1013.67 1014.23 1015.55 1015.82 1015.56 1015.75 1016.21 1016.71 1017.35 1018.19 1018.85
1025.74 1026.57 1027.12 1027.66 1027.87 1028.07 1027.86 1026.86 1025.79 1024.76 1024.15 1023.79 1023.65 1023.72 1023.85 1023.67 1022.86 1022.21 1021.53 1020.59 1019.80 1019.43 1019.07 1018.56 1018.19 1017.95 1017.48 1017.10 1016.30 1015.35 1013.70 1012.58 1012.76 1013.18 1013.38 1014.38 1014.74 1015.59 1015.73 1016.14 1016.78 1017.24 1017.94 1018.80 1019.42
1025.79 1026.61 1027.47 1027.87 1028.10 1028.17 1027.81 1026.71 1025.41 1024.43 1023.98 1023.71 1023.62 1023.37 1023.39 1023.63 1023.14 1022.70 1022.22 1021.55 1020.89 1020.12 1019.79 1019.00 1018.80 1018.83 1018.57 1017.71 1016.72 1015.38 1013.80 1013.14 1012.82 1013.60 1013.37 1013.86 1015.11 1015.46 1015.84 1016.37 1017.36 1017.96 1018.45 1019.35 1019.93
1025.02 1025.48 1026.25 1027.29 1027.86 1028.14 1027.13 1025.90 1024.97 1024.24 1023.50 1023.14 1023.06 1023.03 1022.90 1022.82 1022.77 1022.45 1022.36 1022.18 1022.05 1021.76 1020.84 1020.18 1019.76 1019.58 1019.61 1018.71 1017.26 1016.32 1015.28 1014.25 1014.01 1014.08 1014.03 1014.20 1014.96 1015.46 1016.41 1016.99 1017.71 1018.29 1018.71 1019.29 1019.78
Wind_Speed
13 14 14 13 14 15 16 16 15 13 14 14 16 16 17 18 19 5 0 6 6 13 9 10 6 8 2 3 2 1 3 3 4 4 5 10 1 6 2 7 4 4 7 8 16
12 13 15 15 14 14 15 15 15 15 14 14 15 16 17 18 4 5 4 8 8 6 3 2 2 6 3 3 2 4 4 6 5 5 6 7 5 5 4 5 5 7 9 16 15
10 11 13 15 15 14 14 15 15 15 16 15 15 16 18 13 3 3 3 10 14 10 5 2 1 0 2 1 2 4 6 5 1 5 8 7 10 6 4 1 7 12 11 8 7
9 10 10 12 14 15 15 14 14 14 14 15 15 16 19 3 2 4 13 13 15 10 5 5 2 2 2 3 3 4 7 6 1 5 7 8 8 8 0 3 3 17 20 10 11
9 9 9 10 11 14 15 15 15 13 13 14 13 14 6 4 6 5 14 11 8 14 3 2 2 3 5 4 3 4 4 6 4 6 5 7 6 4 10 8 2 17 15 16 12
10 11 10 7 11 12 14 17 16 15 14 12 12 11 3 4 5 6 9 9 7 8 11 5 3 2 5 6 7 3 7 11 3 5 5 4 6 3 7 6 8 17 13 13 14
10 12 10 7 10 11 14 16 18 17 15 13 11 5 5 14 7 11 12 7 7 6 7 6 6 1 5 2 5 3 4 5 8 3 3 3 7 4 8 7 4 6 13 12 13
10 10 12 12 10 12 15 17 19 19 17 13 8 3 7 6 6 8 5 8 7 10 9 11 6 5 4 4 2 6 2 5 5 10 6 6 10 9 9 9 8 10 9 13 15
10 10 12 13 9 11 16 21 23 17 14 8 3 4 7 8 1 4 4 6 6 7 7 11 5 5 2 4 3 6 6 7 5 9 8 12 3 8 2 4 8 8 9 10 11
8 10 11 9 8 12 17 23 18 9 7 5 4 4 5 3 2 3 5 7 6 6 8 5 5 5 4 9 15 5 7 6 7 6 10 16 12 8 7 6 9 8 8 7 12
10 11 11 9 8 12 10 5 7 5 6 6 9 7 11 10 7 4 2 9 4 6 9 8 9 15 15 13 9 2 6 12 8 9 8 19 15 17 8 14 9 9 7 3 8
11 11 10 9 7 10 5 5 1 2 9 12 15 12 13 7 9 13 3 4 5 12 8 6 19 15 10 11 11 14 8 5 2 2 9 9 16 17 11 13 16 7 8 8 7
10 9 9 5 5 5 4 4 3 2 4 8 4 3 2 4 7 16 6 3 7 11 13 17 9 16 13 12 15 16 18 8 2 2 2 5 6 7 7 7 17 12 7 7 4
9 9 3 1 3 1 3 3 3 2 4 7 3 1 3 3 6 8 10 9 6 6 12 11 16 17 15 18 14 15 7 6 6 5 6 2 6 9 16 15 17 21 15 7 8
9 5 4 4 2 4 3 4 3 2 5 6 2 1 4 4 6 3 3 6 9 8 4 4 9 17 20 9 12 10 8 10 6 4 2 2 0 6 11 17 20 21 20 9 4
4 5 3 2 4 2 3 3 2 7 6 6 4 4 4 5 4 6 3 2 4 9 10 13 2 6 5 16 16 7 5 5 4 4 4 8 7 4 8 13 17 15 19 12 12
7 6 2 3 1 3 3 1 6 5 4 8 4 4 6 5 6 4 5 6 6 2 2 5 10 6 6 5 17 13 9 3 4 6 11 14 4 9 3 9 8 8 9 14 15
13 7 7 3 4 4 3 7 6 3 5 4 6 12 1 5 4 7 5 4 3 4 3 5 8 14 13 8 7 13 14 5 9 10 3 11 9 7 16 5 8 11 13 12 11
12 2 2 1 2 2 6 4 7 5 3 7 10 6 7 7 4 6 4 3 2 7 5 4 6 3 7 10 11 10 19 9 6 3 5 6 5 7 3 10 9 10 12 11 10
4 3 1 3 1 3 5 4 2 3 4 3 1 2 2 6 7 6 5 3 2 1 4 1 7 3 3 6 14 7 15 9 1 7 5 4 4 6 7 12 12 12 14 11 10
2 3 1 2 4 2 3 6 4 5 3 2 3 5 4 4 2 4 5 2 4 3 6 3 3 2 1 7 9 14 11 9 5 5 7 4 5 1 6 13 14 13 12 9 8
3 3 3 3 4 1 1 4 3 4 1 2 2 4 4 4 4 2 4 3 6 4 3 3 3 5 6 7 10 7 14 27 9 8 2 3 4 13 13 14 17 14 12 7 8
2 1 3 5 2 3 5 3 4 2 2 1 2 1 3 4 4 3 5 4 8 6 3 1 0 5 6 3 2 4 7 18 7 4 4 6 2 5 15 13 9 13 9 10 10
2 2 5 4 2 6 2 4 4 4 3 3 4 1 3 4 3 4 5 3 3 7 15 3 2 4 2 3 4 6 10 6 17 5 7 5 11 4 6 11 9 9 9 10 8
2 3 3 2 2 1 2 3 2 3 2 2 3 0 3 2 4 3 3 6 3 9 10 3 3 0 1 4 4 5 6 6 11 5 13 16 19 11 9 9 8 9 10 10 8
3 4 1 2 2 2 3 4 3 4 2 5 2 5 2 5 4 4 4 3 3 8 7 8 2 3 2 3 5 4 9 6 6 6 7 15 12 6 6 9 8 10 11 9 7
1 1 5 3 1 3 5 5 4 2 4 6 2 4 3 4 4 8 6 5 4 5 5 6 5 4 2 5 4 5 3 4 5 5 7 16 10 5 8 11 10 8 9 8 7
Wind_Direction
13 11 12 16 16 10 5 1 1 6 358 359 354 351 346 340 330 292 9 313 324 335 339 314 330 340 290 249 214 82 48 240 239 265 281 336 8 324 105 108 67 50 135 160 147
359 359 359 2 4 5 3 359 357 356 358 354 350 346 345 338 298 268 28 10 350 340 258 280 353 341 329 255 233 126 157 228 245 6 342 311 33 315 73 85 61 64 54 123 138
347 351 351 350 352 356 357 357 353 354 352 351 348 343 339 329 292 89 22 15 353 322 223 266 267 153 218 69 280 204 196 221 337 49 352 341 350 321 120 171 177 156 147 138 141
324 333 340 343 341 343 348 352 350 349 346 344 343 346 331 316 76 188 21 18 356 356 163 190 188 124 241 192 232 244 222 214 303 40 5 335 310 339 320 243 190 165 153 149 170
337 328 313 329 334 333 337 341 341 339 337 339 338 344 352 357 258 331 338 338 360 354 334 274 184 150 187 212 225 219 260 274 55 23 340 336 319 279 296 292 40 142 151 156 167
352 348 320 309 324 328 330 329 329 328 326 326 330 337 328 265 269 330 354 349 9 349 332 326 253 262 260 228 185 253 228 258 6 337 324 336 307 17 295 357 91 145 154 160 169
343 347 339 306 315 320 321 319 315 312 312 314 313 310 250 250 300 317 316 300 306 302 302 309 327 270 353 253 196 167 273 295 239 196 259 345 323 240 262 292 130 184 155 158 172
345 345 339 313 306 315 316 314 306 304 303 298 295 299 250 261 256 292 314 309 266 278 266 282 287 271 197 344 125 140 140 237 202 172 224 98 259 298 291 277 264 189 184 169 181
337 341 333 324 304 315 316 311 302 301 294 292 273 178 269 303 80 294 270 261 291 277 282 285 255 221 193 174 187 202 184 208 310 198 185 185 194 208 342 323 301 219 197 184 183
330 332 331 330 318 323 321 308 298 301 304 212 230 39 290 300 14 323 280 283 243 268 267 224 213 199 207 188 204 160 192 204 195 210 199 229 217 267 290 20 325 263 208 207 187
328 328 331 326 329 334 337 350 13 4 27 308 277 263 287 307 316 215 320 331 250 216 217 211 209 210 207 221 255 195 178 204 202 227 171 218 220 227 230 296 305 310 297 235 226
320 320 325 319 330 335 351 62 105 248 302 275 265 276 263 244 272 271 278 286 229 224 208 250 232 211 192 209 225 250 248 235 200 258 203 208 226 219 190 205 245 277 313 316 310
314 317 321 307 325 352 93 76 348 324 286 289 245 255 312 326 256 264 183 243 267 243 215 220 245 201 217 212 206 222 235 222 208 179 60 104 266 217 217 207 234 239 248 282 259
308 316 313 242 7 282 49 345 30 357 61 283 220 129 314 350 281 262 208 194 226 231 227 237 239 240 223 220 213 225 201 203 173 170 205 195 257 214 214 221 222 233 229 231 290
298 325 135 113 247 58 335 331 70 21 44 278 324 233 254 210 305 270 229 149 237 224 172 229 211 228 222 242 220 220 186 197 156 118 117 247 173 270 193 214 220 224 227 192 65
276 149 121 20 52 62 358 10 6 49 270 317 330 304 307 285 231 273 282 345 216 243 227 254 125 309 321 216 233 249 165 157 116 110 253 181 181 236 197 214 212 213 221 122 94
154 127 63 44 60 331 311 53 40 122 325 295 275 311 294 291 307 325 261 212 211 171 246 258 212 204 212 276 198 226 171 140 162 189 234 151 178 234 273 307 192 171 176 155 149
133 100 76 76 352 333 30 49 81 242 246 302 309 305 290 344 319 319 287 204 239 270 294 181 278 167 167 231 210 210 197 173 169 190 151 141 222 237 217 131 71 76 86 85 93
120 80 98 20 349 336 69 56 204 219 291 327 320 39 327 353 313 352 321 317 131 173 204 294 270 60 191 187 189 189 217 203 108 35 106 193 258 312 124 123 112 103 96 95 98
114 153 113 224 143 61 74 257 212 352 330 329 335 62 309 298 8 2 313 327 21 242 268 165 290 267 318 195 209 210 203 210 98 142 186 205 199 197 151 139 131 120 112 108 107
85 70 248 195 72 63 127 231 287 272 277 345 323 310 280 290 220 296 309 295 339 287 209 228 230 268 345 199 191 198 211 234 176 153 167 137 232 151 184 146 128 123 114 121 117
82 63 262 78 63 147 117 197 263 283 323 287 273 248 260 299 296 301 294 268 276 309 256 228 219 277 259 194 177 261 214 199 205 213 230 129 295 323 138 129 124 119 117 109 93
79 223 328 85 134 303 310 286 224 253 282 326 275 25 282 281 312 348 298 322 11 347 316 310 124 314 338 144 11 306 206 193 204 107 212 116 225 2 104 107 118 121 113 104 101
85 21 332 41 166 131 96 275 300 230 236 244 238 79 314 324 286 267 319 335 37 350 330 276 224 183 351 240 286 311 278 169 203 170 193 161 135 138 101 118 122 115 103 98 95
34 250 190 210 303 103 113 230 253 317 255 233 312 207 192 313 305 316 321 309 300 358 338 314 175 252 3 288 270 268 326 156 205 218 187 160 145 160 143 132 132 113 108 102 101
138 148 314 193 161 82 278 258 211 278 194 286 168 300 282 205 214 304 325 357 318 336 343 326 50 57 290 314 274 313 351 60 88 99 56 125 115 142 122 100 105 119 118 120 126
267 337 109 215 215 100 228 232 240 21 270 221 301 315 277 210 268 249 239 256 258 299 318 341 346 6 249 336 7 10 309 14 64 78 134 138 141 134 114 123 135 129 126 132 129